This is the latest recevied weather packets stored in our database for station/object KA3ZXO. If no packets are shown the sender has not sent any weather packets the latest 10 day(s).
| Time | Temp. | Humidity | Pressure | Rain* | Wind** | Luminosity | Snow |
|---|---|---|---|---|---|---|---|
| 1777985436 | 18.89° C | 62% | 1013.5 hPa | 0 mm | - | 37 W/m² | - |
| 1777984834 | 18.33° C | 63% | 1013.4 hPa | 0 mm | - | 29 W/m² | - |
| 1777984232 | 18.33° C | 64% | 1013.4 hPa | 0 mm | - | 20 W/m² | - |
| 1777983632 | 18.33° C | 65% | 1013.5 hPa | 0 mm | - | 29 W/m² | - |
| 1777983031 | 17.78° C | 65% | 1013.3 hPa | 0 mm | - | 25 W/m² | - |
| 1777982429 | 17.78° C | 67% | 1013.3 hPa | 0 mm | - | 19 W/m² | - |
| 1777981828 | 17.22° C | 68% | 1013.4 hPa | 0 mm | - | 16 W/m² | - |
| 1777981227 | 17.22° C | 69% | 1013.1 hPa | 0 mm | - | 14 W/m² | - |
| 1777980626 | 17.22° C | 69% | 1013 hPa | 0 mm | - | 14 W/m² | - |
| 1777980020 | 16.67° C | 69% | 1013 hPa | 0 mm | - | 16 W/m² | - |
| 1777979416 | 16.67° C | 70% | 1012.9 hPa | 0 mm | - | 16 W/m² | - |
| 1777978816 | 16.67° C | 70% | 1013 hPa | 0 mm | - | 12 W/m² | - |
| 1777978214 | 16.67° C | 70% | 1012.8 hPa | 0 mm | - | 10 W/m² | - |
| 1777977615 | 16.67° C | 70% | 1012.7 hPa | 0 mm | - | 7 W/m² | - |
| 1777977015 | 16.67° C | 70% | 1012.8 hPa | 0 mm | - | 5 W/m² | - |
| 1777976409 | 16.67° C | 70% | 1012.7 hPa | 0 mm | - | 3 W/m² | - |
| 1777975809 | 16.67° C | 69% | 1012.7 hPa | 0 mm | - | 1 W/m² | - |
| 1777975210 | 16.67° C | 69% | 1012.7 hPa | 0 mm | - | 0 W/m² | - |
| 1777974608 | 16.67° C | 69% | 1012.7 hPa | 0 mm | - | 0 W/m² | - |
| 1777974007 | 16.67° C | 68% | 1012.5 hPa | 0 mm | - | 0 W/m² | - |
| 1777973406 | 16.67° C | 68% | 1012.5 hPa | 0 mm | - | 0 W/m² | - |
| 1777972801 | 16.67° C | 68% | 1012.6 hPa | 0 mm | - | 0 W/m² | - |
| 1777972197 | 17.22° C | 67% | 1012.5 hPa | 0 mm | - | 0 W/m² | - |
| 1777971591 | 17.22° C | 67% | 1012.4 hPa | 0 mm | - | 0 W/m² | - |
| 1777970987 | 17.22° C | 67% | 1012.2 hPa | 0 mm | - | 0 W/m² | - |
* Rain latest hour (hover to see other rain measurements)
** Current wind speed in m/s (hover to see current wind gust speed)